Location: Endfield
(51.6667°N, 0.0667°W)
Time: 14:45:59
(UTC+00:00)

Cosmos 1805 Rocket - Pass Details

Date: 19 May 2024
Orbit: 604 x 625 km, 82.5° (Epoch: 18 June)

Event Time Altitude Azimuth Distance (km) Brightness Sun altitude
Rises 21:57:47 0° 351° (N) 2,884 8.4 -13.7°
Reaches altitude 10° 22:00:01 10° 354° (N) 1,978 7.3 -13.9°
Maximum altitude 22:04:23 66° 78° (ENE) 673 3.6 -14.2°
Enters shadow 22:06:55 24° 155° (SSE) 1,278 4.5 -14.4°
